contact:dominique.lefevre@mio.osupytheas.fr, maurice.libes@osupytheas.fr, didier.mallarino@osupytheas.fr
Project:EMSO http://www.emso-fr.org/EMSO-France
Depth: 2436.0 m
Title:EMSO Ligure Ouest : Data MII capteur AQUADOPP
Date,Latitude,Longitude,X_East,Y_North,Z_Up,Amplitude_X,Amplitude_Y,Amplitude_Z,Batterie,SoundSpeed,Heading,Pitch,Roll,Pressure,TIS,Speed,Direction
, degrees North, degrees East, m.s-1, m.s-1,m.s-1, 1, 1, 1, Volt, m.s-1, degree, degree, degree, dbar, degree_C, m.s-1, degree
2023-03-01T00:04:02,42.805,6.029,-0.011,-0.014,-0.06,106.0,105.0,103.0,13.3,1505.2,330.7,-0.8,1.8,2471.314,13.28,0.017,218.2
2023-03-01T00:07:02,42.805,6.029,-0.023,0.008,-0.023,106.0,106.0,104.0,13.4,1505.2,326.0,-0.8,1.8,2471.282,13.29,0.024,289.2
2023-03-01T00:10:03,42.805,6.029,-0.011,-0.013,-0.043,106.0,106.0,103.0,13.3,1505.2,340.0,-0.8,1.8,2471.286,13.29,0.017,220.2
2023-03-01T00:13:03,42.805,6.029,-0.022,-0.016,-0.008,105.0,104.0,103.0,13.3,1505.2,338.2,-0.8,1.8,2471.292,13.29,0.027,234.0
2023-03-01T00:16:03,42.805,6.029,-0.015,-0.016,-0.037,106.0,105.0,103.0,13.4,1505.2,318.9,-0.7,1.8,2471.241,13.29,0.021,223.1
2023-03-01T00:19:03,42.805,6.029,-0.012,-0.017,-0.039,106.0,105.0,104.0,13.4,1505.2,328.3,-0.8,1.8,2471.239,13.29,0.02,215.2
2023-03-01T00:22:02,42.805,6.029,-0.02,-0.017,-0.042,105.0,105.0,104.0,13.4,1505.2,327.9,-0.8,1.8,2471.266,13.29,0.026,229.6
2023-03-01T00:25:03,42.805,6.029,-0.018,0.003,-0.006,107.0,104.0,103.0,13.4,1505.2,338.2,-0.8,1.8,2471.228,13.29,0.018,279.5
2023-03-01T00:28:03,42.805,6.029,-0.025,-0.011,-0.045,106.0,104.0,103.0,13.4,1505.2,325.0,-0.8,1.8,2471.224,13.29,0.027,246.3
2023-03-01T00:31:03,42.805,6.029,-0.014,0.004,0.002,105.0,105.0,103.0,13.3,1505.2,315.5,-0.8,1.8,2471.261,13.29,0.014,285.9
2023-03-01T00:34:03,42.805,6.029,-0.007,-0.003,-0.036,107.0,106.0,103.0,13.4,1505.2,332.5,-0.7,1.8,2471.248,13.29,0.007,246.8
2023-03-01T00:37:02,42.805,6.029,-0.016,-0.006,-0.033,105.0,104.0,103.0,13.4,1505.2,330.4,-0.8,1.8,2471.243,13.29,0.017,249.4
2023-03-01T00:40:03,42.805,6.029,-0.041,-0.019,-0.019,106.0,104.0,103.0,13.4,1505.2,338.0,-0.8,1.8,2471.277,13.29,0.045,245.1
2023-03-01T00:43:03,42.805,6.029,-0.026,-0.01,-0.016,106.0,104.0,103.0,13.3,1505.2,320.6,-0.7,1.8,2471.277,13.29,0.027,249.0
2023-03-01T00:46:03,42.805,6.029,-0.019,-0.008,-0.049,106.0,103.0,105.0,13.4,1505.2,332.6,-0.7,1.8,2471.255,13.29,0.02,247.2
2023-03-01T00:49:03,42.805,6.029,-0.032,0.017,-0.028,106.0,106.0,105.0,13.4,1505.2,337.6,-0.8,1.8,2471.243,13.29,0.036,298.0
2023-03-01T00:52:02,42.805,6.029,0.0,-0.013,-0.012,104.0,108.0,105.0,13.4,1505.2,316.8,-0.8,1.8,2471.258,13.29,0.013,180.0
2023-03-01T00:55:03,42.805,6.029,-0.029,-0.021,-0.025,106.0,105.0,104.0,13.4,1505.2,324.5,-0.8,1.8,2471.25,13.29,0.035,234.1
2023-03-01T00:58:03,42.805,6.029,-0.03,0.009,-0.002,106.0,105.0,104.0,13.3,1505.2,327.9,-0.8,1.8,2471.247,13.29,0.031,286.7
2023-03-01T01:04:02,42.805,6.029,-0.033,0.015,-0.036,107.0,107.0,106.0,13.4,1505.2,338.7,-0.8,1.8,2471.277,13.28,0.036,294.4
2023-03-01T01:07:02,42.805,6.029,-0.037,-0.003,-0.016,105.0,105.0,104.0,13.3,1505.2,323.8,-0.7,1.8,2471.327,13.28,0.037,265.4
2023-03-01T01:10:03,42.805,6.029,-0.05,0.015,-0.021,106.0,104.0,104.0,13.4,1505.2,323.9,-0.8,1.8,2471.273,13.29,0.052,286.7
2023-03-01T01:13:03,42.805,6.029,-0.057,-0.02,-0.037,105.0,106.0,104.0,13.3,1505.2,324.9,-0.8,1.9,2471.28,13.29,0.06,250.7
2023-03-01T01:16:03,42.805,6.029,-0.039,0.008,-0.024,105.0,105.0,104.0,13.4,1505.2,326.9,-0.7,1.8,2471.251,13.29,0.039,281.6
2023-03-01T01:19:03,42.805,6.029,-0.029,0.006,-0.017,106.0,107.0,104.0,13.3,1505.2,321.3,-0.8,1.8,2471.284,13.29,0.029,281.7
2023-03-01T01:22:03,42.805,6.029,-0.025,0.0,-0.011,105.0,106.0,104.0,13.3,1505.2,335.2,-0.7,1.8,2471.264,13.29,0.025,270.0
2023-03-01T01:25:03,42.805,6.029,-0.022,0.01,-0.003,107.0,105.0,104.0,13.4,1505.2,316.0,-0.8,1.8,2471.241,13.29,0.024,294.4
2023-03-01T01:28:03,42.805,6.029,-0.008,-0.007,-0.041,104.0,107.0,105.0,13.4,1505.2,318.9,-0.8,1.8,2471.286,13.29,0.01,228.8
2023-03-01T01:31:03,42.805,6.029,-0.008,0.006,-0.017,105.0,105.0,104.0,13.4,1505.2,330.3,-0.7,1.8,2471.232,13.29,0.01,306.9
2023-03-01T01:34:03,42.805,6.029,-0.023,0.0,-0.028,108.0,106.0,104.0,13.4,1505.2,324.4,-0.8,1.8,2471.243,13.29,0.023,270.0
2023-03-01T01:37:03,42.805,6.029,-0.025,0.004,-0.039,106.0,105.0,103.0,13.4,1505.2,329.3,-0.8,1.8,2471.282,13.29,0.025,279.1
2023-03-01T01:40:03,42.805,6.029,-0.029,0.004,-0.028,107.0,105.0,104.0,13.4,1505.2,322.8,-0.8,1.8,2471.26,13.29,0.029,277.8
2023-03-01T01:43:03,42.805,6.029,-0.02,0.036,-0.02,104.0,108.0,104.0,13.4,1505.2,332.9,-0.7,1.8,2471.256,13.29,0.041,330.9
2023-03-01T01:46:03,42.805,6.029,-0.022,-0.002,-0.042,105.0,105.0,103.0,13.3,1505.2,333.0,-0.8,1.8,2471.301,13.29,0.022,264.8
2023-03-01T01:49:03,42.805,6.029,-0.025,0.0,-0.009,106.0,106.0,104.0,13.4,1505.2,317.2,-0.7,1.8,2471.316,13.29,0.025,270.0
2023-03-01T01:52:03,42.805,6.029,-0.015,0.024,0.017,106.0,105.0,104.0,13.4,1505.2,319.8,-0.8,1.8,2471.249,13.29,0.028,328.0
2023-03-01T01:55:03,42.805,6.029,-0.01,0.004,-0.005,106.0,105.0,104.0,13.4,1505.2,324.7,-0.8,1.8,2471.253,13.29,0.01,291.8
2023-03-01T01:58:03,42.805,6.029,-0.011,0.018,-0.009,106.0,106.0,103.0,13.3,1505.2,338.2,-0.7,1.8,2471.251,13.29,0.021,328.6
2023-03-01T02:04:03,42.805,6.029,-0.022,0.015,-0.008,105.0,105.0,104.0,13.4,1505.2,318.8,-0.8,1.8,2471.306,13.29,0.026,304.3
2023-03-01T02:07:03,42.805,6.029,-0.012,0.012,-0.027,106.0,107.0,103.0,13.4,1505.2,337.5,-0.7,1.8,2471.306,13.29,0.016,315.0
2023-03-01T02:10:03,42.805,6.029,-0.008,-0.002,-0.048,106.0,107.0,103.0,13.4,1505.2,333.8,-0.8,1.8,2471.338,13.29,0.008,256.0
2023-03-01T02:13:03,42.805,6.029,-0.03,0.027,0.005,106.0,106.0,104.0,13.4,1505.2,339.6,-0.8,1.8,2471.297,13.29,0.04,312.0
2023-03-01T02:16:03,42.805,6.029,-0.022,0.0,-0.028,106.0,106.0,104.0,13.4,1505.2,317.2,-0.8,1.9,2471.303,13.29,0.022,270.0
2023-03-01T02:19:03,42.805,6.029,-0.013,0.006,-0.007,107.0,105.0,104.0,13.4,1505.2,318.0,-0.8,1.8,2471.301,13.29,0.014,294.8
2023-03-01T02:22:03,42.805,6.029,-0.01,0.005,-0.032,105.0,105.0,105.0,13.4,1505.2,325.6,-0.7,1.8,2471.291,13.29,0.011,296.6
2023-03-01T02:25:03,42.805,6.029,-0.016,-0.021,-0.033,106.0,105.0,104.0,13.4,1505.2,323.6,-0.7,1.8,2471.297,13.29,0.026,217.3
2023-03-01T02:28:03,42.805,6.029,0.0,0.003,-0.016,107.0,106.0,103.0,13.3,1505.2,325.3,-0.8,1.8,2471.323,13.29,0.003,0.0
2023-03-01T02:31:03,42.805,6.029,-0.009,0.006,-0.018,106.0,105.0,104.0,13.3,1505.2,327.0,-0.7,1.8,2471.282,13.29,0.01,303.7
2023-03-01T02:34:03,42.805,6.029,-0.027,0.002,-0.022,105.0,106.0,103.0,13.4,1505.2,339.7,-0.7,1.8,2471.321,13.29,0.027,274.2
2023-03-01T02:37:03,42.805,6.029,-0.006,-0.011,0.0,106.0,106.0,103.0,13.4,1505.2,326.3,-0.8,1.8,2471.296,13.29,0.012,208.6
2023-03-01T02:40:03,42.805,6.029,-0.018,0.007,-0.02,107.0,104.0,104.0,13.3,1505.2,330.6,-0.8,1.8,2471.293,13.29,0.019,291.2
2023-03-01T02:43:03,42.805,6.029,0.002,0.009,-0.004,107.0,106.0,104.0,13.4,1505.2,337.0,-0.7,1.8,2471.273,13.29,0.009,12.5
2023-03-01T02:46:03,42.805,6.029,-0.024,0.002,-0.05,106.0,107.0,104.0,13.3,1505.2,323.2,-0.7,1.8,2471.326,13.29,0.024,274.8
2023-03-01T02:49:03,42.805,6.029,-0.005,-0.01,-0.048,105.0,105.0,103.0,13.4,1505.2,328.4,-0.7,1.8,2471.27,13.29,0.011,206.6
2023-03-01T02:52:03,42.805,6.029,-0.023,-0.008,-0.038,105.0,106.0,104.0,13.4,1505.2,340.6,-0.7,1.8,2471.282,13.29,0.024,250.8
2023-03-01T02:55:03,42.805,6.029,-0.013,0.0,-0.003,106.0,105.0,103.0,13.4,1505.2,333.8,-0.8,1.8,2471.319,13.29,0.013,270.0
2023-03-01T02:58:03,42.805,6.029,-0.007,-0.008,0.005,107.0,105.0,104.0,13.4,1505.2,326.5,-0.8,1.8,2471.266,13.29,0.01,221.2
2023-03-01T03:04:03,42.805,6.029,-0.007,-0.011,-0.008,108.0,106.0,104.0,13.4,1505.2,339.4,-0.8,1.8,2471.309,13.29,0.013,212.5
2023-03-01T03:07:03,42.805,6.029,-0.002,0.012,0.0,106.0,103.0,105.0,13.3,1505.2,319.3,-0.8,1.8,2471.333,13.29,0.012,350.5
2023-03-01T03:10:03,42.805,6.029,0.002,-0.006,0.0,106.0,104.0,104.0,13.4,1505.2,321.7,-0.8,1.8,2471.316,13.29,0.006,161.6
2023-03-01T03:13:03,42.805,6.029,0.003,0.005,-0.013,106.0,106.0,104.0,13.3,1505.2,338.5,-0.7,1.8,2471.318,13.29,0.005,31.0
2023-03-01T03:16:03,42.805,6.029,0.014,-0.017,-0.02,108.0,105.0,104.0,13.3,1505.2,323.4,-0.8,1.8,2471.323,13.29,0.022,140.5
2023-03-01T03:19:03,42.805,6.029,-0.005,0.007,-0.055,106.0,107.0,104.0,13.4,1505.2,325.1,-0.7,1.8,2471.246,13.29,0.008,324.5
2023-03-01T03:22:03,42.805,6.029,0.007,-0.004,-0.01,106.0,105.0,104.0,13.4,1505.2,324.3,-0.8,1.8,2471.283,13.29,0.008,119.7
2023-03-01T03:25:03,42.805,6.029,-0.011,-0.007,-0.018,107.0,106.0,105.0,13.4,1505.2,324.3,-0.8,1.8,2471.263,13.29,0.013,237.5
2023-03-01T03:28:03,42.805,6.029,-0.01,-0.019,-0.037,106.0,104.0,104.0,13.3,1505.2,330.2,-0.8,1.8,2471.25,13.29,0.021,207.8
2023-03-01T03:31:03,42.805,6.029,0.011,-0.015,-0.003,106.0,107.0,104.0,13.4,1505.2,325.5,-0.8,1.8,2471.308,13.29,0.018,143.7
2023-03-01T03:34:03,42.805,6.029,0.0,0.003,-0.026,107.0,106.0,103.0,13.4,1505.2,327.2,-0.7,1.8,2471.316,13.29,0.003,0.0
2023-03-01T03:37:03,42.805,6.029,0.007,-0.02,-0.03,106.0,105.0,104.0,13.4,1505.2,332.5,-0.8,1.8,2471.268,13.29,0.021,160.7
2023-03-01T03:40:03,42.805,6.029,-0.01,-0.02,-0.012,105.0,106.0,104.0,13.4,1505.2,338.5,-0.7,1.8,2471.325,13.29,0.022,206.6
2023-03-01T03:43:03,42.805,6.029,-0.005,0.004,-0.008,105.0,106.0,103.0,13.4,1505.2,324.1,-0.8,1.8,2471.312,13.29,0.006,308.7
2023-03-01T03:46:03,42.805,6.029,-0.013,-0.011,-0.037,105.0,105.0,103.0,13.4,1505.2,323.9,-0.8,1.8,2471.295,13.29,0.017,229.8
2023-03-01T03:49:03,42.805,6.029,0.001,-0.007,-0.027,107.0,106.0,104.0,13.4,1505.2,323.4,-0.8,1.8,2471.309,13.29,0.007,171.9
2023-03-01T03:52:03,42.805,6.029,0.001,0.0,-0.007,105.0,106.0,105.0,13.4,1505.2,319.6,-0.8,1.8,2471.292,13.29,0.001,90.0
2023-03-01T03:55:03,42.805,6.029,0.001,-0.026,-0.026,105.0,106.0,104.0,13.3,1505.2,336.6,-0.7,1.8,2471.281,13.29,0.026,177.8
2023-03-01T03:58:03,42.805,6.029,0.009,-0.019,0.009,105.0,105.0,104.0,13.4,1505.2,321.7,-0.8,1.8,2471.331,13.29,0.021,154.7
2023-03-01T04:04:03,42.805,6.029,0.0,-0.037,-0.012,106.0,106.0,103.0,13.3,1505.2,334.2,-0.8,1.8,2471.335,13.28,0.037,180.0
2023-03-01T04:07:03,42.805,6.029,0.008,-0.009,-0.04,105.0,107.0,104.0,13.4,1505.2,317.8,-0.8,1.8,2471.357,13.28,0.012,138.4
2023-03-01T04:10:03,42.805,6.029,0.02,-0.009,-0.03,107.0,106.0,104.0,13.4,1505.2,325.5,-0.8,1.8,2471.311,13.29,0.021,114.2
2023-03-01T04:13:03,42.805,6.029,0.003,-0.02,-0.009,105.0,106.0,104.0,13.3,1505.2,322.3,-0.8,1.8,2471.323,13.29,0.02,171.5
2023-03-01T04:16:03,42.805,6.029,0.0,-0.024,-0.051,106.0,105.0,104.0,13.4,1505.2,336.5,-0.8,1.8,2471.307,13.29,0.024,180.0
2023-03-01T04:19:03,42.805,6.029,0.006,-0.002,-0.028,108.0,106.0,104.0,13.4,1505.2,334.6,-0.8,1.8,2471.282,13.29,0.006,108.4
2023-03-01T04:22:03,42.805,6.029,0.0,-0.009,-0.022,106.0,106.0,104.0,13.3,1505.2,320.9,-0.8,1.8,2471.258,13.29,0.009,180.0
2023-03-01T04:25:03,42.805,6.029,0.009,-0.027,-0.022,104.0,107.0,103.0,13.3,1505.2,332.9,-0.8,1.8,2471.334,13.29,0.028,161.6
2023-03-01T04:28:03,42.805,6.029,0.014,-0.022,-0.01,108.0,106.0,104.0,13.4,1505.2,333.4,-0.8,1.8,2471.283,13.29,0.026,147.5
2023-03-01T04:31:03,42.805,6.029,0.005,-0.022,-0.04,106.0,105.0,105.0,13.3,1505.2,317.3,-0.7,1.8,2471.313,13.29,0.022,167.2
2023-03-01T04:34:03,42.805,6.029,0.014,-0.016,-0.012,107.0,106.0,104.0,13.3,1505.2,321.6,-0.8,1.8,2471.288,13.29,0.021,138.8
2023-03-01T04:37:03,42.805,6.029,0.013,-0.006,-0.017,105.0,105.0,105.0,13.4,1505.2,327.9,-0.8,1.8,2471.318,13.29,0.014,114.8
2023-03-01T04:40:03,42.805,6.029,0.006,-0.013,-0.014,106.0,106.0,104.0,13.3,1505.2,338.0,-0.8,1.8,2471.277,13.29,0.014,155.2
2023-03-01T04:43:03,42.805,6.029,0.013,-0.017,-0.023,108.0,105.0,105.0,13.4,1505.2,316.8,-0.7,1.8,2471.308,13.29,0.021,142.6
2023-03-01T04:46:03,42.805,6.029,-0.004,-0.026,-0.028,106.0,106.0,105.0,13.4,1505.2,320.4,-0.8,1.8,2471.286,13.29,0.026,188.7
2023-03-01T04:49:03,42.805,6.029,0.009,-0.003,-0.02,107.0,108.0,104.0,13.4,1505.2,320.7,-0.8,1.8,2471.303,13.29,0.009,108.4
2023-03-01T04:52:03,42.805,6.029,0.005,-0.032,-0.011,106.0,105.0,105.0,13.4,1505.2,339.4,-0.8,1.8,2471.29,13.29,0.032,171.1
2023-03-01T04:55:03,42.805,6.029,0.017,-0.03,0.0,108.0,106.0,105.0,13.4,1505.2,323.8,-0.8,1.8,2471.271,13.29,0.034,150.5
2023-03-01T04:58:03,42.805,6.029,-0.001,-0.022,-0.019,106.0,105.0,104.0,13.4,1505.2,317.1,-0.8,1.8,2471.294,13.29,0.022,182.6
2023-03-01T05:04:03,42.805,6.029,-0.002,-0.028,-0.007,105.0,105.0,105.0,13.3,1505.2,325.3,-0.8,1.8,2471.34,13.28,0.028,184.1
2023-03-01T05:07:03,42.805,6.029,0.022,-0.009,-0.022,107.0,106.0,105.0,13.4,1505.2,324.1,-0.7,1.8,2471.317,13.28,0.023,112.2
2023-03-01T05:10:03,42.805,6.029,0.002,-0.01,-0.018,106.0,107.0,103.0,13.4,1505.2,331.4,-0.8,1.8,2471.301,13.28,0.01,168.7
2023-03-01T05:13:03,42.805,6.029,0.0,-0.021,-0.032,106.0,107.0,104.0,13.4,1505.2,328.1,-0.8,1.8,2471.299,13.29,0.021,180.0
2023-03-01T05:16:03,42.805,6.029,0.031,-0.033,-0.01,105.0,105.0,103.0,13.4,1505.2,330.7,-0.8,1.8,2471.306,13.29,0.045,136.8
2023-03-01T05:19:03,42.805,6.029,0.006,-0.014,-0.039,107.0,105.0,104.0,13.3,1505.2,333.0,-0.8,1.8,2471.297,13.29,0.015,156.8
2023-03-01T05:22:03,42.805,6.029,0.012,-0.018,-0.023,107.0,107.0,103.0,13.3,1505.2,340.6,-0.8,1.8,2471.281,13.29,0.021,146.3
2023-03-01T05:25:03,42.805,6.029,0.014,-0.019,-0.001,107.0,106.0,103.0,13.4,1505.2,339.9,-0.7,1.8,2471.323,13.29,0.023,143.6
2023-03-01T05:28:03,42.805,6.029,0.004,-0.011,-0.028,107.0,105.0,103.0,13.4,1505.2,333.8,-0.8,1.8,2471.318,13.29,0.011,160.0
2023-03-01T05:31:03,42.805,6.029,-0.007,-0.026,-0.041,106.0,105.0,104.0,13.4,1505.2,331.5,-0.7,1.8,2471.305,13.29,0.026,195.1
2023-03-01T05:34:03,42.805,6.029,0.017,-0.025,-0.014,106.0,106.0,104.0,13.4,1505.2,320.6,-0.8,1.8,2471.273,13.29,0.03,145.8
2023-03-01T05:37:03,42.805,6.029,0.022,-0.002,-0.022,108.0,105.0,104.0,13.3,1505.2,320.9,-0.8,1.8,2471.306,13.29,0.022,95.2
2023-03-01T05:40:03,42.805,6.029,0.003,-0.021,-0.017,105.0,105.0,105.0,13.3,1505.2,334.6,-0.7,1.8,2471.31,13.29,0.021,171.9
2023-03-01T05:43:03,42.805,6.029,0.019,-0.025,-0.006,107.0,107.0,104.0,13.3,1505.2,332.9,-0.8,1.8,2471.304,13.29,0.031,142.8
2023-03-01T05:46:03,42.805,6.029,0.01,-0.013,-0.013,106.0,105.0,104.0,13.4,1505.2,322.4,-0.8,1.8,2471.304,13.29,0.016,142.4
2023-03-01T05:49:03,42.805,6.029,0.014,-0.027,-0.034,104.0,105.0,104.0,13.4,1505.2,331.7,-0.8,1.8,2471.281,13.29,0.03,152.6
2023-03-01T05:52:03,42.805,6.029,0.003,-0.019,-0.01,105.0,106.0,103.0,13.4,1505.2,325.3,-0.7,1.8,2471.349,13.29,0.019,171.0
2023-03-01T05:55:03,42.805,6.029,0.019,-0.016,0.001,107.0,104.0,104.0,13.4,1505.2,322.9,-0.8,1.8,2471.26,13.29,0.024,130.1
2023-03-01T05:58:03,42.805,6.029,0.003,-0.038,-0.01,106.0,106.0,104.0,13.4,1505.2,324.5,-0.8,1.8,2471.297,13.29,0.038,175.5
2023-03-01T06:04:03,42.805,6.029,0.006,-0.037,-0.026,107.0,105.0,104.0,13.4,1505.2,333.8,-0.8,1.8,2471.33,13.28,0.037,170.8
2023-03-01T06:07:03,42.805,6.029,0.006,-0.032,-0.028,106.0,105.0,105.0,13.4,1505.2,331.3,-0.8,1.8,2471.319,13.28,0.032,169.4
2023-03-01T06:10:03,42.805,6.029,0.018,-0.026,-0.038,106.0,105.0,104.0,13.3,1505.2,336.1,-0.7,1.8,2471.319,13.28,0.031,145.3
2023-03-01T06:13:03,42.805,6.029,0.011,-0.018,-0.014,106.0,104.0,105.0,13.4,1505.2,341.8,-0.8,1.8,2471.311,13.28,0.021,148.6
2023-03-01T06:16:03,42.805,6.029,-0.004,-0.016,0.013,106.0,104.0,105.0,13.4,1505.2,339.7,-0.8,1.8,2471.334,13.29,0.016,194.0
2023-03-01T06:19:03,42.805,6.029,0.01,-0.028,-0.022,106.0,104.0,104.0,13.4,1505.2,331.2,-0.7,1.8,2471.317,13.29,0.029,160.4
2023-03-01T06:22:03,42.805,6.029,0.011,-0.044,-0.022,106.0,105.0,105.0,13.3,1505.2,341.8,-0.7,1.8,2471.296,13.29,0.045,166.0
2023-03-01T06:25:03,42.805,6.029,0.027,-0.036,0.0,106.0,104.0,104.0,13.4,1505.2,322.1,-0.8,1.9,2471.306,13.29,0.045,143.1
2023-03-01T06:28:03,42.805,6.029,0.033,-0.036,-0.07,106.0,105.0,104.0,13.3,1505.2,319.8,-0.8,1.8,2471.29,13.29,0.048,137.5
2023-03-01T06:31:03,42.805,6.029,0.02,-0.042,-0.009,106.0,106.0,104.0,13.3,1505.2,331.2,-0.7,1.8,2471.289,13.29,0.046,154.5
2023-03-01T06:34:03,42.805,6.029,0.011,-0.027,-0.038,105.0,105.0,103.0,13.4,1505.2,315.5,-0.8,1.8,2471.321,13.29,0.029,157.8
2023-03-01T06:37:03,42.805,6.029,0.021,-0.032,-0.044,105.0,107.0,105.0,13.3,1505.2,333.8,-0.8,1.8,2471.301,13.29,0.038,146.7
2023-03-01T06:40:03,42.805,6.029,-0.012,-0.021,-0.028,105.0,105.0,104.0,13.3,1505.2,338.7,-0.8,1.8,2471.302,13.29,0.024,209.7
2023-03-01T06:43:03,42.805,6.029,0.025,-0.019,-0.013,107.0,105.0,104.0,13.4,1505.2,328.5,-0.7,1.8,2471.25,13.29,0.031,127.2
2023-03-01T06:46:03,42.805,6.029,0.012,-0.042,-0.031,106.0,105.0,105.0,13.4,1505.2,323.3,-0.7,1.8,2471.282,13.29,0.043,164.1
2023-03-01T06:49:03,42.805,6.029,0.004,-0.049,-0.019,104.0,105.0,104.0,13.4,1505.2,324.6,-0.8,1.8,2471.283,13.29,0.049,175.3
2023-03-01T06:52:03,42.805,6.029,0.019,-0.035,-0.014,105.0,104.0,104.0,13.4,1505.2,338.2,-0.8,1.8,2471.263,13.29,0.039,151.5
2023-03-01T06:55:03,42.805,6.029,0.007,-0.02,-0.031,106.0,106.0,104.0,13.3,1505.2,322.1,-0.7,1.8,2471.278,13.29,0.021,160.7
2023-03-01T06:58:03,42.805,6.029,0.006,-0.047,-0.032,106.0,105.0,104.0,13.4,1505.2,323.1,-0.8,1.8,2471.294,13.29,0.047,172.7
2023-03-01T07:04:03,42.805,6.029,0.004,-0.039,-0.015,106.0,105.0,104.0,13.4,1505.2,324.7,-0.8,1.8,2471.344,13.28,0.039,174.1
2023-03-01T07:07:03,42.805,6.029,0.029,-0.03,-0.025,106.0,106.0,104.0,13.4,1505.2,314.4,-0.7,1.8,2471.316,13.28,0.041,136.0
2023-03-01T07:10:03,42.805,6.029,0.01,-0.03,-0.021,108.0,105.0,103.0,13.4,1505.2,324.7,-0.8,1.8,2471.313,13.28,0.031,161.6
2023-03-01T07:13:03,42.805,6.029,0.012,-0.025,-0.011,106.0,104.0,104.0,13.3,1505.2,332.9,-0.8,1.8,2471.298,13.28,0.027,154.4
2023-03-01T07:16:03,42.805,6.029,0.014,-0.023,-0.022,106.0,104.0,104.0,13.4,1505.2,322.0,-0.8,1.8,2471.307,13.28,0.026,148.7
2023-03-01T07:19:03,42.805,6.029,-0.002,-0.044,-0.03,107.0,105.0,104.0,13.4,1505.2,316.7,-0.8,1.9,2471.284,13.29,0.044,182.6
2023-03-01T07:22:03,42.805,6.029,0.032,-0.046,-0.015,104.0,107.0,104.0,13.3,1505.2,323.9,-0.7,1.8,2471.312,13.29,0.056,145.2
2023-03-01T07:25:03,42.805,6.029,0.017,-0.042,-0.014,107.0,106.0,104.0,13.3,1505.2,341.5,-0.8,1.8,2471.273,13.29,0.045,158.0
2023-03-01T07:28:03,42.805,6.029,0.009,-0.028,-0.05,106.0,107.0,105.0,13.4,1505.2,330.0,-0.8,1.8,2471.295,13.29,0.029,162.2
2023-03-01T07:31:03,42.805,6.029,0.001,-0.062,-0.033,106.0,105.0,105.0,13.3,1505.2,319.9,-0.8,1.8,2471.258,13.29,0.062,179.1
2023-03-01T07:34:03,42.805,6.029,-0.002,-0.041,-0.04,107.0,106.0,106.0,13.3,1505.2,326.0,-0.8,1.8,2471.296,13.29,0.041,182.8
2023-03-01T07:37:03,42.805,6.029,0.011,-0.037,-0.022,108.0,106.0,104.0,13.4,1505.2,334.2,-0.7,1.8,2471.28,13.29,0.038,163.4
2023-03-01T07:40:03,42.805,6.029,0.027,-0.019,0.006,106.0,105.0,105.0,13.3,1505.2,323.4,-0.8,1.8,2471.282,13.29,0.033,125.1
2023-03-01T07:43:03,42.805,6.029,0.011,-0.033,-0.003,107.0,105.0,104.0,13.3,1505.2,336.6,-0.8,1.8,2471.254,13.29,0.034,161.6
2023-03-01T07:46:03,42.805,6.029,0.006,-0.045,0.009,106.0,107.0,103.0,13.3,1505.2,321.3,-0.8,1.8,2471.247,13.29,0.045,172.4
2023-03-01T07:49:03,42.805,6.029,-0.005,-0.042,-0.05,106.0,105.0,104.0,13.3,1505.2,330.6,-0.8,1.8,2471.271,13.29,0.042,186.8
2023-03-01T07:52:15,42.805,6.029,-0.001,-0.037,-0.019,107.0,105.0,104.0,13.4,1505.2,337.6,-0.7,1.8,2471.266,13.29,0.037,181.5
2023-03-01T07:55:03,42.805,6.029,0.004,-0.021,-0.019,106.0,105.0,104.0,13.4,1505.2,316.2,-0.8,1.8,2471.31,13.29,0.021,169.2
2023-03-01T07:58:03,42.805,6.029,-0.003,-0.032,-0.002,106.0,107.0,104.0,13.4,1505.2,330.5,-0.8,1.8,2471.295,13.29,0.032,185.4
2023-03-01T08:04:03,42.805,6.029,0.002,-0.052,-0.013,106.0,106.0,104.0,13.4,1505.2,322.2,-0.8,1.8,2471.321,13.28,0.052,177.8
2023-03-01T08:07:03,42.805,6.029,-0.004,-0.028,-0.046,106.0,106.0,105.0,13.4,1505.2,330.6,-0.7,1.8,2471.335,13.28,0.028,188.1
2023-03-01T08:10:03,42.805,6.029,0.006,-0.034,-0.035,106.0,105.0,105.0,13.3,1505.2,335.8,-0.8,1.8,2471.265,13.28,0.034,170.0
2023-03-01T08:13:03,42.805,6.029,-0.025,-0.035,-0.023,106.0,106.0,104.0,13.3,1505.2,337.3,-0.8,1.8,2471.286,13.28,0.043,215.5
2023-03-01T08:16:03,42.805,6.029,0.009,-0.023,-0.008,106.0,106.0,104.0,13.3,1505.2,316.2,-0.8,1.8,2471.276,13.28,0.024,158.6
2023-03-01T08:19:03,42.805,6.029,0.0,-0.046,-0.061,104.0,105.0,104.0,13.3,1505.2,329.8,-0.8,1.8,2471.291,13.29,0.046,180.0
2023-03-01T08:22:03,42.805,6.029,0.001,-0.051,-0.033,105.0,106.0,104.0,13.4,1505.2,323.9,-0.8,1.8,2471.289,13.29,0.051,178.9
2023-03-01T08:25:03,42.805,6.029,-0.016,-0.041,-0.021,105.0,106.0,104.0,13.3,1505.2,332.3,-0.8,1.8,2471.278,13.29,0.044,201.3
2023-03-01T08:28:03,42.805,6.029,-0.026,-0.021,-0.023,106.0,106.0,104.0,13.3,1505.2,323.4,-0.8,1.8,2471.288,13.29,0.033,231.1
2023-03-01T08:31:03,42.805,6.029,0.0,-0.026,-0.036,106.0,105.0,103.0,13.3,1505.2,333.0,-0.8,1.8,2471.243,13.29,0.026,180.0
2023-03-01T08:34:03,42.805,6.029,0.015,-0.028,-0.038,108.0,105.0,105.0,13.4,1505.2,316.1,-0.8,1.8,2471.285,13.29,0.031,151.8
2023-03-01T08:37:04,42.805,6.029,-0.013,-0.019,-0.037,108.0,104.0,105.0,13.4,1505.2,325.7,-0.8,1.8,2471.245,13.29,0.023,214.4
2023-03-01T08:40:03,42.805,6.029,-0.002,-0.039,-0.001,106.0,106.0,105.0,13.4,1505.2,321.2,-0.8,1.8,2471.289,13.29,0.039,182.9
2023-03-01T08:43:03,42.805,6.029,-0.006,-0.028,-0.029,107.0,105.0,104.0,13.3,1505.2,321.8,-0.8,1.8,2471.265,13.29,0.028,192.1
2023-03-01T08:46:04,42.805,6.029,-0.04,-0.027,-0.033,107.0,105.0,103.0,13.4,1505.2,338.5,-0.8,1.8,2471.249,13.29,0.048,236.0
2023-03-01T08:49:03,42.805,6.029,-0.006,-0.038,-0.029,105.0,104.0,104.0,13.4,1505.2,319.4,-0.7,1.8,2471.236,13.29,0.038,189.0
2023-03-01T08:52:03,42.805,6.029,-0.015,-0.02,-0.003,107.0,104.0,103.0,13.4,1505.2,338.7,-0.8,1.8,2471.278,13.29,0.025,216.9
2023-03-01T08:55:03,42.805,6.029,-0.003,-0.035,-0.018,106.0,105.0,105.0,13.4,1505.2,326.8,-0.8,1.8,2471.263,13.29,0.035,184.9
2023-03-01T08:58:03,42.805,6.029,-0.01,-0.032,-0.021,106.0,106.0,104.0,13.4,1505.2,323.2,-0.8,1.8,2471.242,13.29,0.033,197.4
2023-03-01T09:04:03,42.805,6.029,-0.008,-0.021,-0.01,106.0,106.0,104.0,13.3,1505.2,321.7,-0.8,1.8,2471.277,13.28,0.022,200.9
2023-03-01T09:07:03,42.805,6.029,-0.009,-0.02,-0.022,106.0,105.0,104.0,13.3,1505.2,332.0,-0.8,1.8,2471.29,13.28,0.021,204.2
2023-03-01T09:10:03,42.805,6.029,-0.024,-0.032,-0.026,106.0,105.0,104.0,13.3,1505.2,340.6,-0.8,1.8,2471.279,13.29,0.04,216.9
2023-03-01T09:13:03,42.805,6.029,-0.011,-0.016,-0.031,105.0,107.0,103.0,13.3,1505.2,340.6,-0.8,1.8,2471.28,13.29,0.019,214.5
2023-03-01T09:16:03,42.805,6.029,-0.001,-0.021,0.0,107.0,105.0,104.0,13.4,1505.2,316.8,-0.8,1.8,2471.318,13.29,0.021,182.7
2023-03-01T09:19:03,42.805,6.029,-0.023,-0.038,-0.037,107.0,106.0,103.0,13.3,1505.2,333.4,-0.8,1.8,2471.286,13.29,0.044,211.2
2023-03-01T09:22:03,42.805,6.029,-0.025,-0.025,-0.029,106.0,106.0,106.0,13.4,1505.2,335.1,-0.7,1.8,2471.235,13.29,0.035,225.0
2023-03-01T09:25:03,42.805,6.029,-0.022,-0.029,-0.04,106.0,106.0,103.0,13.3,1505.2,328.8,-0.7,1.8,2471.264,13.29,0.036,217.2
2023-03-01T09:28:03,42.805,6.029,-0.042,-0.023,-0.053,107.0,105.0,104.0,13.4,1505.2,329.1,-0.8,1.8,2471.268,13.29,0.047,241.3
2023-03-01T09:31:03,42.805,6.029,-0.007,-0.011,-0.02,107.0,107.0,105.0,13.4,1505.2,331.6,-0.8,1.8,2471.289,13.29,0.013,212.5
2023-03-01T09:34:03,42.805,6.029,-0.015,-0.008,-0.004,107.0,106.0,105.0,13.4,1505.2,320.7,-0.8,1.8,2471.294,13.29,0.017,241.9
2023-03-01T09:37:03,42.805,6.029,-0.017,-0.028,-0.025,107.0,105.0,103.0,13.4,1505.2,327.8,-0.8,1.8,2471.237,13.29,0.032,211.3
2023-03-01T09:40:03,42.805,6.029,-0.014,-0.015,-0.016,106.0,105.0,104.0,13.4,1505.2,330.0,-0.8,1.8,2471.27,13.29,0.02,223.0
2023-03-01T09:43:03,42.805,6.029,-0.007,-0.023,-0.001,106.0,106.0,104.0,13.4,1505.2,322.1,-0.8,1.8,2471.243,13.29,0.024,196.9
2023-03-01T09:46:03,42.805,6.029,-0.016,-0.002,-0.021,107.0,105.0,104.0,13.4,1505.2,332.6,-0.8,1.8,2471.248,13.29,0.016,262.9
2023-03-01T09:49:03,42.805,6.029,0.0,-0.028,-0.014,106.0,106.0,104.0,13.3,1505.2,323.1,-0.8,1.8,2471.28,13.29,0.028,180.0
2023-03-01T09:52:03,42.805,6.029,-0.009,-0.021,-0.03,107.0,105.0,104.0,13.3,1505.2,333.8,-0.8,1.8,2471.229,13.29,0.022,203.2